Voltar ao catálogo

GGSE 1

GGRS

AtivoNavegaçãoLEO
NORAD 728·PAYLOAD·🇺🇸 United States

Lançado Jan 11, 1964 de Vandenberg Space Force Base

Loading…

Próximas Passagens (próximas 24 horas)

TLE

AtualizadoSource: Space-Track

Época: Sep 14, 2026, 08:12 UTC

1 00728U 64001B   26257.34199306  .00000019  00000-0  51542-4 0  9996
2 00728  69.9102  11.5697 0015660 238.7110 121.2463 13.97790034192133

Acompanhe GGSE 1 em tempo real com AllMySat

Download on the App Store